Regional Weather Roundup
Issued by NWS Cleveland, OH

Home | Current Version | Previous Version | Text Only | Print | Product List | Glossary Off
Versions: 1 2 3 4 5 6 7 8 9 10 11 12 13 14 15 16 17 18 19 20 21 22 23 24 25 26 27 28 29 30 31 32 33 34 35 36 37 38 39 40 41 42 43 44 45 46 47 48 49 50

000
ASUS41 KCLE 231110
RWRCLE
OHIO REGIONAL WEATHER ROUNDUP
NATIONAL WEATHER SERVICE CLEVELAND, OH
700 AM EDT SAT AUG 23 2014

NOTE: "FAIR" INDICATES FEW OR NO CLOUDS BELOW 12,000 FEET WITH NO
SIGNIFICANT WEATHER AND/OR OBSTRUCTIONS TO VISIBILITY.

OHZ001>008-015>018-024>027-034-035-043-044-231200-
   NORTHWEST OHIO

CITY           SKY/WX    TMP DP  RH WIND       PRES   REMARKS
DEFIANCE       FOG       71  69  93 NE6       30.01R VSB 1
FINDLAY        FOG       71  69  93 NE7       30.01R VSB 3/4
TOLEDO EXPRESS CLEAR     67  64  90 NE5       30.02R
TOLEDO EXEC    CLEAR     70  65  84 NE6       30.02R
LIMA           PTCLDY    70  68  93 E6        30.01R FOG
$$

OHZ009>014-019>023-028>033-038-089-231200-
   NORTHEAST OHIO

CITY           SKY/WX    TMP DP  RH WIND       PRES   REMARKS
CLE-HOPKINS    PTCLDY    70  67  90 NE5       30.03R FOG
CLE-LAKEFRONT  CLEAR     70  67  90 NE3       30.01R
CUY CO. ARPT   MOCLDY    70  68  94 E5        30.02  FOG
LORAIN-ELYRIA  MOCLDY    72  67  84 NE6       30.02R HAZE
ASHTABULA      CLOUDY    67  66  97 CALM      30.03R FOG
AKRON-CANTON   PTCLDY    68  64  87 CALM      30.02R FOG
WOOSTER        FOG       64  63  96 CALM      30.03R VSB<1/4
MANSFIELD      FOG       66  66 100 CALM      30.03R VSB<1/4
YOUNGSTOWN     FOG       64  63  94 NE8       30.02R VSB 1/2
$$

OHZ042-051>053-060>062-070>072-077>081-231200-
  SOUTHWEST OHIO

CITY           SKY/WX    TMP DP  RH WIND       PRES   REMARKS
CINC-COVINGTON PTCLDY    70  70 100 CALM      30.01R FOG
CINC-LUNKEN    FOG       69  69 100 CALM      30.00R VSB 1/4
HAMILTON       FOG       68  68 100 CALM      30.01R VSB 1/4
DAYTON         FOG       72  71  97 NW3       30.02R VSB 1/4
WRIGHT-PAT AFB FOG       70  70 100 NE2       30.00S VSB 1/2
DAYTON GENERAL MOCLDY    71  70  96 NW3       30.00R FOG
WILMINGTON     FOG       68  67  96 NE3       30.00S VSB 1/4
$$

OHZ036-037-039>041-045>050-054>059-063>069-073>076-082>088-231200-
  CENTRAL AND SOUTHEAST OHIO

CITY           SKY/WX    TMP DP  RH WIND       PRES   REMARKS
COLUMBUS       PTCLDY    72  68  87 CALM      29.99R FOG
OSU AIRPORT    FOG       70  69  97 CALM      30.00R VSB 1/4
BOLTON FIELD   FOG       70  70 100 CALM      30.01R VSB<1/4
RICKENBACK AFB FOG       69  65  88 CALM      29.99R VSB<1/4
NEWARK         CLOUDY    70  68  93 NE3       29.99R FOG
MARION         FOG       66  65  96 N3        30.02R VSB 1/4
LANCASTER      FOG       68  66  93 CALM      30.00R VSB 1/4
ZANESVILLE     FOG       69  67  93 NE5       30.00R VSB 1/2
NEW PHILLY     MOCLDY    68  68 100 CALM      30.01R FOG
$$



USA.gov is the U.S. government's official web portal to all federal, state and local government web resources and services.